Location: Long Barn
(38.0930°N, 120.1344°W)
Time: 10:03:35
(UTC+00:00)

Cosmos 1943 Rocket - Visible Passes

Search period start: 09 November 2025 00:00
Search period end: 19 November 2025 00:00
Orbit: 811 x 842 km, 71.0° (Epoch: 08 November)

Date Brightness Start Highest point End Pass type
(mag) Time Alt. Az. Time Alt. Az. Time Alt. Az.
09 Nov 3.9 01:42:20 10° ESE 01:44:02 11° E 01:44:09 11° E visible
09 Nov 2.5 03:21:17 10° SSW 03:25:44 57° SSW 03:25:44 57° SSW visible
09 Nov 3.7 12:15:45 10° N 12:20:42 33° ENE 12:25:37 10° ESE visible
09 Nov 2.9 13:59:31 10° NW 14:04:18 31° WSW 14:09:03 10° SSW visible
10 Nov 2.0 03:01:41 10° SSW 03:07:20 86° ESE 03:07:48 75° NE visible
10 Nov 5.0 04:48:52 10° W 04:49:23 11° WNW 04:49:23 11° WNW visible
10 Nov 3.9 11:57:34 16° N 12:01:03 29° ENE 12:05:45 10° ESE visible
10 Nov 2.7 13:39:47 10° NW 13:44:46 36° WSW 13:49:43 10° S visible
11 Nov 2.0 02:42:09 10° SSW 02:47:45 75° ESE 02:49:47 40° NE visible
11 Nov 4.7 04:28:39 10° W 04:31:21 16° WNW 04:31:21 16° WNW visible
11 Nov 4.0 11:39:32 21° NNE 11:41:22 25° ENE 11:45:51 10° ESE visible
11 Nov 2.5 13:21:06 15° NW 13:25:13 42° WSW 13:30:19 10° S visible
12 Nov 2.1 02:22:37 10° S 02:28:10 64° ESE 02:31:38 23° NE visible
12 Nov 4.5 04:08:32 10° W 04:12:21 18° NW 04:13:11 18° NW visible
12 Nov 4.2 11:21:35 22° NE 11:21:42 22° NE 11:25:54 10° ESE visible
12 Nov 2.3 13:03:10 29° NW 13:05:39 49° WSW 13:10:54 10° S visible
13 Nov 2.3 02:03:07 10° S 02:08:36 55° ESE 02:13:21 14° NNE visible
13 Nov 4.4 03:48:30 10° WSW 03:52:39 21° NW 03:54:54 17° NNW visible
13 Nov 4.6 11:03:43 17° ENE 11:03:43 17° ENE 11:05:54 10° E visible
13 Nov 2.1 12:45:18 52° WNW 12:46:05 57° WSW 12:51:26 10° S visible
14 Nov 2.4 01:43:40 10° S 01:49:01 47° ESE 01:54:23 10° NE visible
14 Nov 4.2 03:28:31 10° WSW 03:32:58 24° WNW 03:36:28 14° N visible
14 Nov 2.3 12:27:28 55° SSW 12:27:28 55° SSW 12:31:55 10° S visible
15 Nov 2.6 01:24:15 10° S 01:29:29 41° ESE 01:34:41 10° NE visible
15 Nov 4.0 03:08:35 10° WSW 03:13:17 27° WNW 03:17:56 10° N visible
15 Nov 3.4 12:09:39 31° S 12:09:39 31° S 12:12:23 10° SSE visible
16 Nov 3.9 02:48:43 10° WSW 02:53:37 30° WNW 02:58:31 10° N visible
16 Nov 4.3 11:51:48 16° SSE 11:51:48 16° SSE 11:52:49 10° SSE visible
17 Nov 3.7 02:28:52 10° SW 02:33:57 35° WNW 02:39:02 10° N visible
18 Nov 3.4 02:09:04 10° SW 02:14:18 40° WNW 02:19:33 10° N visible
